[[{"header":{"parameterUnit":"m.s-1","parameterCategory":1,"la1":30.2991,"la2":30.254,"lo1":-89.0895,"lo2":-89.0444,"dy":0.0017,"dx":0.0017,"nx":28,"ny":28,"refTime":"2025-01-01T09:00:00:Z","depth":0,"parameterNumber":2,"parameterNumberName":"U-component_of_WINDS"},"data":[0,0,0,0,0,0,0,0,0,0,0,0,0,0,0,0,0,0,0,0,0,0,0,0,0,0,0,0,0,0,0,0,0,0,0,0,0,0,0,0,0,0,0,0,0,0,0,0,0,0,0,0,0,0,0,0,0,0,-0.7389,-0.7389,0,-0.744,-0.7441,-0.7441,-0.7401,-0.7399,-0.7398,-0.7396,-0.7452,-0.7455,-0.7458,0,0,0,0,0,0,0,0,0,0,0,0,0,-0.7258,-0.726,-0.7389,-0.7389,-0.739,-0.744,-0.7441,-0.7442,-0.7401,-0.7399,-0.7397,-0.7395,-0.7451,-0.7455,-0.7458,0,0,0,0,0,0,0,0,0,0,0,0,0,-0.7313,-0.7261,-0.7389,-0.7376,-0.7375,-0.744,-0.7441,-0.7442,-0.7402,-0.7399,-0.7397,-0.7394,-0.745,-0.7454,-0.7459,-0.754,0,0,-0.7473,-0.7475,0,0,0,0,0,0,0,0,-0.731,-0.7318,-0.7377,-0.7377,-0.7376,-0.7411,-0.7415,-0.7475,-0.7402,-0.7392,-0.7396,-0.7393,-0.7441,-0.7446,-0.7461,-0.7542,-0.7545,-0.7473,-0.7476,-0.7478,-0.748,0,0,0,0,0,0,0,-0.7306,-0.7315,-0.7409,-0.7378,-0.7378,-0.7368,-0.7373,-0.7426,-0.743,-0.7393,-0.739,-0.7396,-0.744,-0.7457,-0.7463,-0.7546,-0.7473,-0.7478,-0.748,-0.7482,-0.7696,-0.7699,0,0,0,0,0,0,-0.7303,-0.7312,-0.7407,-0.7411,-0.7336,-0.7373,-0.7378,-0.7403,-0.743,-0.7431,-0.7398,-0.7394,-0.745,-0.7457,-0.7464,-0.7562,-0.7478,-0.7483,-0.7485,-0.7693,-0.7696,-0.77,0,0,0,0,0,0,-0.73,-0.7312,-0.7405,-0.7361,-0.7372,-0.7378,-0.7406,-0.7405,-0.7422,-0.7434,-0.7435,-0.7415,-0.7449,-0.7458,-0.7521,-0.7563,-0.7485,-0.7489,-0.769,-0.7694,-0.7698,-0.7757,0,0,0,0,0,0,-0.7297,-0.7311,-0.7342,-0.7362,-0.7374,-0.7461,-0.7408,-0.7408,-0.743,-0.7425,-0.745,-0.7451,-0.7447,-0.7514,-0.7526,-0.7568,-0.7493,-0.7686,-0.7692,-0.7697,-0.7752,-0.7763,-0.7773,0,0,0,0,0,-0.7292,-0.7357,-0.7343,-0.7355,-0.7412,-0.7464,-0.7471,-0.7464,-0.7433,-0.7465,-0.7472,-0.7451,-0.7556,-0.7521,-0.7534,-0.7578,-0.7683,-0.769,-0.7696,-0.7747,-0.7761,-0.7772,0,0,0,0,0,0,-0.7343,-0.7359,-0.7345,-0.7417,-0.7439,-0.7457,-0.7496,-0.7479,-0.7511,-0.7505,-0.7495,-0.7501,-0.7568,-0.7579,-0.754,-0.7658,-0.7615,-0.7624,-0.7649,-0.7662,-0.7673,-0.767,-0.7497,0,0,0,0,0,-0.7362,-0.7402,-0.7414,-0.7477,-0.7489,-0.749,-0.7512,-0.7505,-0.7527,-0.7537,-0.7549,-0.7573,-0.7611,-0.7637,-0.7673,-0.7752,-0.7757,-0.7788,-0.7799,-0.7807,-0.7817,-0.786,-0.7874,-0.7721,-0.7721,-0.7721,0,0,-0.7404,-0.7417,-0.7443,-0.7488,-0.7504,-0.7546,-0.7499,-0.7545,-0.7576,-0.7544,-0.7605,-0.7615,-0.764,-0.7712,-0.7744,-0.7723,-0.786,-0.7816,-0.7823,-0.7827,-0.7868,-0.7883,-0.7896,-0.7725,-0.7724,-0.7724,0,0,-0.7501,-0.7514,-0.7569,-0.7585,-0.7609,-0.761,-0.7623,-0.7642,-0.7647,-0.7708,-0.7685,-0.7722,-0.7788,-0.7807,-0.7826,-0.7928,-0.791,-0.794,-0.7997,-0.8039,-0.8051,-0.8062,-0.81,-0.8114,-0.7948,-0.7949,-0.7949,0,-0.755,-0.7611,-0.7599,-0.7647,-0.7668,-0.7639,-0.7694,-0.7711,-0.7747,-0.7762,-0.7737,-0.7819,-0.7835,-0.7911,-0.7936,-0.7951,-0.7967,-0.7939,-0.805,-0.8061,-0.8071,-0.8107,-0.8121,-0.7952,-0.7952,-0.7951,-0.7951,0,-0.767,-0.7713,-0.7754,-0.7788,-0.7813,-0.7864,-0.7861,-0.7888,-0.7877,-0.7881,-0.7943,-0.7959,-0.7998,-0.8015,-0.8006,-0.809,-0.8077,-0.8051,-0.8008,-0.8089,-0.8123,-0.8137,-0.7957,-0.7956,-0.7955,-0.7954,0,0,-0.7804,-0.7829,-0.7844,-0.7859,-0.7883,-0.7917,-0.7966,-0.8003,-0.8027,-0.8052,-0.8095,-0.815,-0.8126,-0.8147,-0.814,-0.8176,-0.8258,-0.8146,-0.8147,-0.8168,-0.8354,-0.8375,-0.8391,-0.8245,-0.8247,-0.8249,-0.8352,0,-0.7903,-0.799,-0.798,-0.8064,-0.8103,-0.8075,-0.8119,-0.8139,-0.8142,-0.8177,-0.8181,-0.8222,-0.8186,-0.8199,-0.8234,-0.8241,-0.8296,-0.8233,-0.8286,-0.8288,-0.8284,-0.8408,-0.8431,-0.8527,-0.8365,-0.8367,-0.8369,0,-0.8032,-0.806,-0.8147,-0.8164,-0.8181,-0.822,-0.8253,-0.8286,-0.8308,-0.8308,-0.8331,-0.8316,-0.8367,-0.8321,-0.8391,-0.8349,-0.837,-0.8376,-0.838,-0.8387,-0.8336,-0.8421,-0.8558,-0.8573,-0.8389,-0.8388,-0.8386,0,-0.8123,-0.8183,-0.8243,-0.8256,-0.8277,-0.8306,-0.8316,-0.8335,-0.8357,-0.8386,-0.8401,-0.8435,-0.8455,-0.8482,-0.8477,-0.8444,-0.855,-0.8503,-0.8553,-0.8553,-0.8579,-0.8578,-0.8724,-0.8588,-0.8588,-0.8588,-0.8588,0,-0.8237,-0.8292,-0.8284,-0.8321,-0.8382,-0.8369,-0.843,-0.8436,-0.8453,-0.8492,-0.8469,-0.8506,-0.8496,-0.8532,-0.8529,-0.8589,-0.8597,-0.86,-0.8599,-0.8603,-0.8603,-0.8619,-0.8613,-0.8592,-0.8591,-0.859,-0.8589,0,-0.8351,-0.8347,-0.8411,-0.8425,-0.843,-0.8474,-0.8486,-0.8522,-0.8522,-0.8571,-0.8582,-0.8584,-0.8625,-0.8622,-0.867,-0.8667,-0.8742,-0.8732,-0.8735,-0.8734,-0.8785,-0.8781,-0.8947,-0.8969,-0.8817,-0.8819,-0.882,0,-0.8426,-0.8467,-0.8485,-0.8508,-0.852,-0.8559,-0.8581,-0.857,-0.8595,-0.8622,-0.8654,-0.8693,-0.8724,-0.8792,-0.8798,-0.8834,-0.8826,-0.8882,-0.8832,-0.8835,-0.883,-0.8828,-0.8833,-0.8893,-0.8895,-0.8896,-0.8897,0,-0.8559,-0.8554,-0.8587,-0.862,-0.8647,-0.8672,-0.8695,-0.8716,-0.8707,-0.8736,-0.8778,-0.8801,-0.8849,-0.8889,-0.8922,-0.8933,-0.8915,-0.8912,-0.8926,-0.8933,-0.8934,-0.8936,-0.8764,-0.8909,-0.8908,-0.8907,-0.8907,-0.8906,-0.8657,-0.8692,-0.871,-0.8748,-0.8763,-0.8785,-0.8819,-0.8823,-0.8857,-0.8895,-0.8885,-0.8933,-0.8953,-0.8996,-0.901,-0.9048,-0.9028,-0.9047,-0.9053,-0.9059,-0.9066,-0.8925,-0.9053,-0.9053,-0.9053,-0.9052,-0.9052,0,-0.8791,-0.88,-0.8835,-0.8867,-0.8896,-0.8873,-0.8897,-0.8924,-0.8965,-0.8985,-0.9015,-0.9063,-0.9101,-0.9109,-0.9146,-0.9174,-0.9166,-0.9184,-0.9184,-0.9187,-0.908,-0.9066,-0.919,-0.919,-0.919,-0.919,-0.919,-0.919,-0.8864,-0.8924,-0.8921,-0.8988,-0.8997,-0.9043,-0.9058,-0.9078,-0.9094,-0.9148,-0.9179,-0.9183,-0.9199,-0.9236,-0.927,-0.9271,-0.9287,-0.9308,-0.9307,-0.9208,-0.9194,-0.9181,-0.9167,-0.9311,-0.9311,-0.941,-0.9411,-0.9412]},{"header":{"parameterUnit":"m.s-1","parameterCategory":1,"la1":30.2991,"la2":30.254,"lo1":-89.0895,"lo2":-89.0444,"dy":0.0017,"dx":0.0017,"nx":28,"ny":28,"refTime":"2025-01-01T09:00:00:Z","depth":0,"parameterNumber":3,"parameterNumberName":"V-component_of_WINDS"},"data":[0,0,0,0,0,0,0,0,0,0,0,0,0,0,0,0,0,0,0,0,0,0,0,0,0,0,0,0,0,0,0,0,0,0,0,0,0,0,0,0,0,0,0,0,0,0,0,0,0,0,0,0,0,0,0,0,0,0,-5.9037,-5.9038,0,-5.9171,-5.9173,-5.9174,-5.9092,-5.9088,-5.9084,-5.908,-5.9215,-5.9222,-5.9229,0,0,0,0,0,0,0,0,0,0,0,0,0,-5.8706,-5.8712,-5.9036,-5.9038,-5.904,-5.9171,-5.9173,-5.9174,-5.9092,-5.9088,-5.9083,-5.9078,-5.9213,-5.9221,-5.923,0,0,0,0,0,0,0,0,0,0,0,0,0,-5.8846,-5.8714,-5.9036,-5.9015,-5.9014,-5.917,-5.9173,-5.9175,-5.9093,-5.9088,-5.9082,-5.9076,-5.921,-5.922,-5.9231,-5.9415,0,0,-5.9264,-5.9269,0,0,0,0,0,0,0,0,-5.8838,-5.8858,-5.9016,-5.9017,-5.9016,-5.9109,-5.9105,-5.9255,-5.9095,-5.9063,-5.908,-5.9073,-5.9184,-5.9197,-5.9235,-5.9421,-5.9427,-5.9265,-5.9272,-5.9276,-5.9279,0,0,0,0,0,0,0,-5.8828,-5.8852,-5.909,-5.9019,-5.9019,-5.8997,-5.9011,-5.9133,-5.9155,-5.9066,-5.906,-5.9077,-5.9183,-5.9224,-5.9237,-5.9429,-5.9265,-5.9274,-5.9281,-5.9285,-5.9773,-5.9779,0,0,0,0,0,0,-5.8821,-5.8844,-5.9085,-5.9094,-5.8911,-5.9008,-5.9023,-5.9085,-5.9153,-5.9158,-5.9082,-5.9073,-5.9209,-5.9225,-5.9242,-5.9462,-5.9276,-5.9286,-5.9293,-5.9766,-5.9774,-5.9781,0,0,0,0,0,0,-5.8814,-5.8843,-5.908,-5.8968,-5.8996,-5.902,-5.909,-5.9091,-5.9132,-5.9166,-5.9169,-5.9121,-5.9205,-5.9226,-5.9373,-5.9465,-5.9291,-5.9301,-5.9759,-5.9769,-5.9778,-5.9904,0,0,0,0,0,0,-5.8805,-5.8841,-5.8912,-5.897,-5.9002,-5.921,-5.9096,-5.9097,-5.9151,-5.9141,-5.9203,-5.9207,-5.9202,-5.9357,-5.9383,-5.9477,-5.9309,-5.975,-5.9763,-5.9775,-5.9891,-5.9917,-5.9938,0,0,0,0,0,-5.8793,-5.8941,-5.8916,-5.8946,-5.9092,-5.9216,-5.9234,-5.9226,-5.9159,-5.923,-5.9252,-5.9205,-5.9451,-5.9373,-5.9402,-5.95,-5.9745,-5.976,-5.9774,-5.9881,-5.9912,-5.9937,0,0,0,0,0,0,-5.8893,-5.8949,-5.8921,-5.9093,-5.915,-5.9202,-5.9291,-5.9258,-5.9335,-5.9322,-5.9307,-5.9321,-5.9474,-5.9501,-5.9413,-5.9681,-5.9587,-5.9608,-5.9659,-5.9688,-5.9711,-5.9702,-5.9318,0,0,0,0,0,-5.8935,-5.9032,-5.9075,-5.9222,-5.9252,-5.9267,-5.9321,-5.9309,-5.9368,-5.9391,-5.9423,-5.9481,-5.9571,-5.9631,-5.9715,-5.9894,-5.9907,-5.9976,-5.9999,-6.0018,-6.0037,-6.0134,-6.0166,-5.9829,-5.9829,-5.9828,0,0,-5.9023,-5.9065,-5.9127,-5.9243,-5.9286,-5.9387,-5.9288,-5.9398,-5.9472,-5.9407,-5.9548,-5.9574,-5.9637,-5.9801,-5.9874,-5.9828,-6.0133,-6.0037,-6.0052,-6.006,-6.0152,-6.0184,-6.0212,-5.9839,-5.9837,-5.9835,0,0,-5.9234,-5.9276,-5.9404,-5.9449,-5.9516,-5.9525,-5.9555,-5.9612,-5.9627,-5.9768,-5.9722,-5.9809,-5.9964,-6.0011,-6.0056,-6.0285,-6.0245,-6.0312,-6.0435,-6.0529,-6.0556,-6.0579,-6.0661,-6.0691,-6.033,-6.0331,-6.0331,0,-5.9335,-5.9485,-5.9473,-5.9587,-5.9639,-5.9586,-5.9715,-5.9759,-5.985,-5.9887,-5.9834,-6.0028,-6.0067,-6.0241,-6.0297,-6.0334,-6.0368,-6.0306,-6.0553,-6.0576,-6.0598,-6.0676,-6.0707,-6.0339,-6.0338,-6.0337,-6.0336,0,-5.9606,-5.971,-5.9805,-5.9896,-5.9958,-6.0079,-6.0084,-6.0149,-6.0132,-6.0146,-6.0289,-6.0334,-6.0427,-6.0467,-6.0451,-6.0639,-6.0608,-6.0555,-6.046,-6.0638,-6.0712,-6.0741,-6.035,-6.0347,-6.0345,-6.0343,0,0,-5.9885,-5.9967,-6.0002,-6.0043,-6.0113,-6.0193,-6.031,-6.0402,-6.0458,-6.0522,-6.062,-6.0753,-6.0704,-6.0754,-6.0742,-6.0825,-6.1005,-6.0761,-6.0762,-6.0805,-6.1215,-6.1256,-6.1291,-6.0978,-6.0984,-6.0988,-6.121,0,-6.0101,-6.0309,-6.0301,-6.0494,-6.0591,-6.0541,-6.0644,-6.0697,-6.0713,-6.0796,-6.0813,-6.0908,-6.0835,-6.0865,-6.0945,-6.0966,-6.1087,-6.0949,-6.1069,-6.1074,-6.1056,-6.1329,-6.1373,-6.1581,-6.1239,-6.1243,-6.1247,0,-6.0382,-6.0457,-6.066,-6.0716,-6.0756,-6.0849,-6.0932,-6.1012,-6.1071,-6.1077,-6.1134,-6.1108,-6.1227,-6.1128,-6.129,-6.1197,-6.1245,-6.1263,-6.1271,-6.1282,-6.1172,-6.135,-6.1647,-6.1678,-6.1292,-6.1288,-6.1285,0,-6.0567,-6.0718,-6.0859,-6.0895,-6.0963,-6.103,-6.1061,-6.1114,-6.117,-6.1242,-6.1278,-6.1363,-6.141,-6.1476,-6.1474,-6.1402,-6.1639,-6.1539,-6.1646,-6.1647,-6.17,-6.1697,-6.201,-6.1729,-6.1729,-6.1728,-6.1727,0,-6.081,-6.0936,-6.0943,-6.103,-6.117,-6.1159,-6.1298,-6.1322,-6.137,-6.146,-6.1421,-6.1507,-6.1498,-6.1584,-6.1583,-6.1718,-6.1739,-6.1747,-6.1745,-6.1751,-6.175,-6.1783,-6.1769,-6.1736,-6.1734,-6.1733,-6.1731,0,-6.1041,-6.105,-6.1201,-6.1253,-6.1269,-6.137,-6.1414,-6.1497,-6.1508,-6.1623,-6.1649,-6.1668,-6.1767,-6.1772,-6.1885,-6.1884,-6.2049,-6.203,-6.203,-6.2027,-6.2134,-6.2124,-6.248,-6.2527,-6.2215,-6.2218,-6.222,0,-6.1196,-6.1292,-6.1355,-6.1413,-6.1449,-6.1543,-6.16,-6.1592,-6.1653,-6.1728,-6.1801,-6.1896,-6.1972,-6.2132,-6.2155,-6.2242,-6.2226,-6.2344,-6.2238,-6.2241,-6.2229,-6.2224,-6.2233,-6.2366,-6.2369,-6.2372,-6.2374,0,-6.1471,-6.1471,-6.1555,-6.1642,-6.1711,-6.1778,-6.184,-6.189,-6.1889,-6.1959,-6.2061,-6.212,-6.2236,-6.2331,-6.2415,-6.2445,-6.2411,-6.2407,-6.2437,-6.2444,-6.244,-6.2445,-6.2087,-6.2399,-6.2397,-6.2395,-6.2394,-6.2393,-6.1669,-6.1753,-6.181,-6.1905,-6.1952,-6.2011,-6.2091,-6.2113,-6.2198,-6.2293,-6.2283,-6.2395,-6.2451,-6.256,-6.2598,-6.2685,-6.2644,-6.2686,-6.2697,-6.2709,-6.2721,-6.2426,-6.27,-6.2699,-6.2698,-6.2698,-6.2697,0,-6.1943,-6.1978,-6.2065,-6.2154,-6.2229,-6.219,-6.2257,-6.2321,-6.2421,-6.2477,-6.2553,-6.2669,-6.2761,-6.2791,-6.288,-6.2944,-6.293,-6.2968,-6.2963,-6.2971,-6.2752,-6.2718,-6.2977,-6.2977,-6.2977,-6.2977,-6.2977,-6.2977,-6.2095,-6.2234,-6.2241,-6.2403,-6.2435,-6.2547,-6.2588,-6.2642,-6.2687,-6.2819,-6.2895,-6.2915,-6.296,-6.3052,-6.3134,-6.3141,-6.3175,-6.322,-6.322,-6.3015,-6.2987,-6.296,-6.2928,-6.3228,-6.3228,-6.3433,-6.3435,-6.3436]}]]